Regional Weather Roundup
Issued by NWS

Home | Current Version | Previous Version | Graphics & Text | Print | Product List | Glossary On
Versions: 1 2 3 4 5 6 7 8 9 10 11 12 13 14 15 16 17 18 19 20 21 22 23 24 25 26 27 28 29 30 31 32 33 34 35 36 37 38 39 40 41 42 43 44 45 46 47 48 49 50
000
ASUS45 KCYS 280010
RWRWY

WYOMING REGIONAL WEATHER ROUNDUP
NATIONAL WEATHER SERVICE CHEYENNE WY
600 PM MDT SUN JUL 27 2014

NOTE:  "FAIR" INDICATES FEW OR NO CLOUDS BELOW 12,000 FEET
WITH NO SIGNIFICANT WEATHER AND/OR OBSTRUCTIONS TO VISIBILITY.

WYZ001-280100-
YELLOWSTONE NATIONAL PARK

CITY           SKY/WX    TMP DP  RH WIND       PRES   REMARKS
LK YELLOWSTONE   N/A     73  34  23 E3        30.47F
6HR MIN TEMP:  65; 6HR MAX TEMP:  77;

W YELLOWSTONE  NOT AVBL

$$
WYZ002>013-054>058-071-098>099-280100-
NORTHERN WYOMING

CITY           SKY/WX    TMP DP  RH WIND       PRES   REMARKS
JACKSON        SUNNY     84  30  14 CALM      30.33S
CODY           NOT AVBL
GREYBULL       SUNNY     91  23   8 S5        30.18F
6HR MIN TEMP:  79; 6HR MAX TEMP:  92;

WORLAND        SUNNY     91  24   9 NE8       30.19F
6HR MIN TEMP:  77; 6HR MAX TEMP:  92;

SHERIDAN       SUNNY     86  42  21 VRB6      30.25F
6HR MIN TEMP:  78; 6HR MAX TEMP:  88;

BUFFALO        SUNNY     84  36  18 NE7       30.32F
6HR MIN TEMP:  75; 6HR MAX TEMP:  85;

GILLETTE       SUNNY     84  40  21 NE10      30.28F
6HR MIN TEMP:  76; 6HR MAX TEMP:  85;

HULETT         FAIR      79  43  27 MISG      30.32
NEWCASTLE      FAIR      82  34  17 N5        30.28

$$
WYZ014>020-022>026-101>103-280100-
CENTRAL WYOMING

CITY           SKY/WX    TMP DP  RH WIND       PRES   REMARKS
BIG PINEY      MOSUNNY   85  21   9 NE8       30.37F
6HR MIN TEMP:  74; 6HR MAX TEMP:  88;

PINEDALE       PTCLDY    81  27  13 NW9       30.39F
DUBOIS         FAIR      79  27  14 E16       30.39S
LANDER         MOSUNNY   87  26  11 N9        30.27F
6HR MIN TEMP:  76; 6HR MAX TEMP:  89;

RIVERTON       MOSUNNY   85  21   9 E7        30.29F
6HR MIN TEMP:  76; 6HR MAX TEMP:  87;

CASPER         MOSUNNY   86  37  17 NE8       30.30S
6HR MIN TEMP:  77; 6HR MAX TEMP:  87; 6HR PCP: TRACE;

DOUGLAS        SUNNY     84  48  28 E10       30.30F
6HR MIN TEMP:  77; 6HR MAX TEMP:  86;


$$
WYZ021-027>030-104>119-280100-
SOUTHERN WYOMING

CITY           SKY/WX    TMP DP  RH WIND       PRES   REMARKS
EVANSTON       MOSUNNY   86  26  11 E6        30.35F
6HR MIN TEMP:  80; 6HR MAX TEMP:  89;

KEMMERER       CLEAR    N/A N/A N/A N5        30.38S
FORT BRIDGER   FAIR      88  16   7 NE6       30.38F
ROCK SPRINGS   SUNNY     87  23   9 VRB6      30.33F
6HR MIN TEMP:  78; 6HR MAX TEMP:  88;

DIXON          FAIR      89  27  10 NW9       30.32F
RAWLINS        SUNNY     86  27  11 N8G21     30.35F
6HR MIN TEMP:  76; 6HR MAX TEMP:  87;

SARATOGA       FAIR      84  32  15 N7        30.36F
LARAMIE        MOSUNNY   68  56  65 SE15      30.43R
6HR MIN TEMP:  65; 6HR MAX TEMP:  79; 6HR PCP: TRACE;

CHEYENNE       MOSUNNY   76  51  41 S12       30.38S
6HR MIN TEMP:  70; 6HR MAX TEMP:  79;

TORRINGTON     SUNNY     84  52  33 SE8       30.25F
6HR MIN TEMP:  78; 6HR MAX TEMP:  86;

PINE BLUFFS    FAIR      79  46  31 E12       30.33S

$$


USA.gov is the U.S. government's official web portal to all federal, state and local government web resources and services.